| time (UTC) | temp F | wind direction | speed MPH | gust MPH | rain 1hr in | rain 24hr in | rain mn in | humidity % | barometer mb |
| 20260504040055 | 62 | 315 | 0.0 | 2.0 | 0.00 | 0.01 | 0.00 | 84 | 1011.9 |
| 20260504035106 | 62 | 34 | 1.0 | 2.0 | 0.00 | 0.01 | 0.00 | 84 | 1012.0 |
| 20260504034055 | 62 | 0.0 | 1.0 | 0.00 | 0.01 | 0.00 | 84 | 1012.3 | |
| 20260504033025 | 62 | 0.0 | 1.0 | 0.00 | 0.01 | 0.00 | 84 | 1012.4 | |
| 20260504032116 | 62 | 0.0 | 1.0 | 0.00 | 0.01 | 0.00 | 84 | 1012.4 | |
| 20260504031104 | 62 | 315 | 0.0 | 2.0 | 0.00 | 0.01 | 0.00 | 84 | 1012.5 |
| 20260504030053 | 62 | 315 | 0.0 | 2.0 | 0.00 | 0.01 | 0.00 | 84 | 1012.5 |
| 20260504025103 | 62 | 225 | 0.0 | 2.0 | 0.00 | 0.01 | 0.00 | 85 | 1012.5 |
| 20260504024032 | 62 | 180 | 0.0 | 2.0 | 0.00 | 0.01 | 0.00 | 85 | 1012.4 |
| 20260504023022 | 62 | 0.0 | 1.0 | 0.00 | 0.01 | 0.00 | 85 | 1012.5 | |
| 20260504022110 | 62 | 0.0 | 0.0 | 0.00 | 0.01 | 0.00 | 85 | 1012.3 | |
| 20260504021116 | 62 | 315 | 0.0 | 2.0 | 0.00 | 0.01 | 0.00 | 86 | 1012.4 |
| 20260504020100 | 62 | 0.0 | 0.0 | 0.00 | 0.01 | 0.00 | 86 | 1012.4 | |
| 20260504015048 | 62 | 0.0 | 0.0 | 0.00 | 0.01 | 0.00 | 87 | 1012.3 | |
| 20260504014109 | 62 | 360 | 0.0 | 2.0 | 0.00 | 0.01 | 0.00 | 87 | 1012.4 |
| 20260504013048 | 62 | 0 | 0.0 | 2.0 | 0.00 | 0.01 | 0.00 | 87 | 1012.3 |
| 20260504012037 | 62 | 335 | 1.0 | 3.0 | 0.00 | 0.01 | 0.00 | 87 | 1012.5 |
| 20260504011025 | 62 | 0 | 1.0 | 2.0 | 0.00 | 0.01 | 0.00 | 86 | 1012.5 |
| 20260504010115 | 62 | 342 | 1.0 | 2.0 | 0.00 | 0.01 | 0.00 | 86 | 1012.5 |
| 20260504005103 | 63 | 307 | 1.0 | 2.0 | 0.00 | 0.01 | 0.00 | 86 | 1012.6 |
| 20260504004052 | 63 | 32 | 1.0 | 2.0 | 0.00 | 0.01 | 0.00 | 86 | 1012.6 |
| 20260504003041 | 63 | 0 | 0.0 | 2.0 | 0.00 | 0.01 | 0.00 | 86 | 1012.7 |
| 20260504002030 | 63 | 0 | 0.0 | 2.0 | 0.00 | 0.01 | 0.00 | 86 | 1012.8 |
| 20260504001118 | 63 | 45 | 0.0 | 2.0 | 0.00 | 0.01 | 0.00 | 87 | 1012.9 |
| 20260504000105 | 63 | 23 | 0.0 | 2.0 | 0.00 | 0.01 | 0.00 | 87 | 1013.1 |
| 20260503235050 | 63 | 0.0 | 1.0 | 0.00 | 0.01 | 0.00 | 88 | 1013.2 | |
| 20260503234032 | 63 | 0.0 | 0.0 | 0.00 | 0.01 | 0.00 | 88 | 1013.2 | |
| 20260503233115 | 63 | 0.0 | 1.0 | 0.00 | 0.01 | 0.00 | 88 | 1013.2 | |
| 20260503232105 | 63 | 0 | 0.0 | 2.0 | 0.00 | 0.01 | 0.00 | 88 | 1013.3 |
| 20260503231054 | 63 | 58 | 0.0 | 2.0 | 0.00 | 0.01 | 0.00 | 89 | 1013.3 |
| 20260503230044 | 63 | 0 | 0.0 | 2.0 | 0.00 | 0.01 | 0.00 | 89 | 1013.3 |
| 20260503225033 | 63 | 0.0 | 0.0 | 0.00 | 0.01 | 0.00 | 89 | 1013.2 | |
| 20260503224021 | 63 | 0.0 | 0.0 | 0.00 | 0.01 | 0.00 | 89 | 1013.2 | |
| 20260503223110 | 63 | 0.0 | 1.0 | 0.00 | 0.01 | 0.00 | 89 | 1013.3 | |
| 20260503222057 | 63 | 0.0 | 1.0 | 0.00 | 0.01 | 0.00 | 89 | 1013.4 | |
| 20260503221045 | 63 | 23 | 0.0 | 2.0 | 0.00 | 0.01 | 0.00 | 89 | 1013.5 |
| 20260503220035 | 63 | 315 | 0.0 | 2.0 | 0.00 | 0.01 | 0.00 | 89 | 1013.5 |
| 20260503215025 | 63 | 180 | 0.0 | 3.0 | 0.00 | 0.01 | 0.01 | 88 | 1013.7 |
| 20260503214115 | 63 | 225 | 0.0 | 2.0 | 0.00 | 0.01 | 0.01 | 88 | 1013.7 |
| 20260503213103 | 63 | 188 | 2.0 | 4.0 | 0.00 | 0.01 | 0.01 | 86 | 1013.7 |
| 20260503212052 | 63 | 0.0 | 1.0 | 0.00 | 0.01 | 0.01 | 85 | 1013.7 | |
| 20260503211039 | 63 | 43 | 2.0 | 4.0 | 0.00 | 0.01 | 0.01 | 81 | 1013.6 |
| 20260503210028 | 64 | 39 | 1.0 | 3.0 | 0.00 | 0.01 | 0.01 | 80 | 1013.5 |
| 20260503205017 | 64 | 342 | 1.0 | 2.0 | 0.00 | 0.01 | 0.01 | 81 | 1013.3 |
| 20260503204130 | 64 | 0 | 0.0 | 2.0 | 0.00 | 0.01 | 0.01 | 81 | 1013.3 |
| 20260503203055 | 64 | 23 | 1.0 | 2.0 | 0.00 | 0.01 | 0.01 | 81 | 1013.0 |
| 20260503202043 | 64 | 28 | 1.0 | 2.0 | 0.00 | 0.01 | 0.01 | 80 | 1012.9 |
| 20260503201033 | 64 | 313 | 2.0 | 4.0 | 0.00 | 0.01 | 0.01 | 80 | 1012.8 |
| 20260503200022 | 64 | 68 | 1.0 | 4.0 | 0.00 | 0.01 | 0.01 | 79 | 1012.8 |
| 20260503195151 | 64 | 353 | 1.0 | 2.0 | 0.00 | 0.01 | 0.01 | 78 | 1012.7 |
| 20260503194100 | 64 | 325 | 1.0 | 3.0 | 0.00 | 0.01 | 0.01 | 77 | 1012.6 |
| 20260503193048 | 64 | 353 | 1.0 | 3.0 | 0.00 | 0.01 | 0.01 | 76 | 1012.5 |
| 20260503192059 | 64 | 356 | 1.0 | 4.0 | 0.00 | 0.01 | 0.01 | 75 | 1012.5 |
| 20260503191049 | 64 | 350 | 1.0 | 3.0 | 0.00 | 0.01 | 0.01 | 74 | 1012.5 |
| 20260503190018 | 65 | 17 | 2.0 | 4.0 | 0.00 | 0.01 | 0.01 | 73 | 1012.3 |
| 20260503185108 | 65 | 331 | 2.0 | 3.0 | 0.00 | 0.01 | 0.01 | 71 | 1012.2 |
| 20260503184138 | 65 | 352 | 2.0 | 4.0 | 0.00 | 0.01 | 0.01 | 71 | 1012.4 |
| 20260503183047 | 65 | 348 | 3.0 | 4.0 | 0.00 | 0.01 | 0.01 | 71 | 1012.2 |
| 20260503182055 | 66 | 305 | 2.0 | 4.0 | 0.00 | 0.01 | 0.01 | 71 | 1012.3 |
| 20260503181020 | 66 | 46 | 3.0 | 7.0 | 0.00 | 0.01 | 0.01 | 71 | 1012.1 |
| 20260503180126 | 66 | 341 | 2.0 | 5.0 | 0.00 | 0.01 | 0.01 | 71 | 1012.1 |
| 20260503175054 | 66 | 352 | 2.0 | 4.0 | 0.00 | 0.01 | 0.01 | 71 | 1012.0 |
| 20260503174044 | 67 | 354 | 2.0 | 4.0 | 0.00 | 0.01 | 0.01 | 70 | 1012.0 |
| 20260503173051 | 67 | 349 | 2.0 | 4.0 | 0.00 | 0.01 | 0.01 | 70 | 1012.0 |
| 20260503172118 | 66 | 291 | 2.0 | 3.0 | 0.00 | 0.01 | 0.01 | 70 | 1012.0 |
| 20260503171106 | 66 | 45 | 2.0 | 4.0 | 0.00 | 0.01 | 0.01 | 70 | 1012.2 |
| 20260503170116 | 66 | 325 | 2.0 | 4.0 | 0.00 | 0.01 | 0.01 | 69 | 1011.9 |
| 20260503131055 | 73 | 287 | 3.0 | 4.0 | 0.00 | 0.01 | 0.01 | 58 | 1013.2 |
| 20260503110138 | 70 | 319 | 3.0 | 5.0 | 0.00 | 0.01 | 0.01 | 71 | 1014.5 |
| 20260503090107 | 62 | 295 | 1.0 | 3.0 | 0.01 | 0.01 | 0.01 | 97 | 1015.1 |
| 20260503081102 | 62 | 0.0 | 1.0 | 0.01 | 0.01 | 0.01 | 96 | 1015.0 | |
| 20260503072107 | 62 | 0.0 | 1.0 | 0.00 | 0.00 | 0.00 | 95 | 1014.7 | |
| 20260503071055 | 62 | 0.0 | 2.0 | 0.00 | 0.00 | 0.00 | 94 | 1014.5 | |
| 20260503070144 | 62 | 0.0 | 1.0 | 0.00 | 0.00 | 0.00 | 94 | 1014.7 | |
| 20260503055023 | 62 | 0.0 | 1.0 | 0.00 | 0.00 | 0.00 | 94 | 1014.2 | |
| 20260503054112 | 62 | 0.0 | 1.0 | 0.00 | 0.00 | 0.00 | 94 | 1014.2 | |
| 20260503053120 | 62 | 0.0 | 1.0 | 0.00 | 0.00 | 0.00 | 93 | 1014.3 | |
| 20260503052044 | 62 | 0.0 | 2.0 | 0.00 | 0.00 | 0.00 | 93 | 1014.3 | |
| 20260503051028 | 62 | 315 | 0.0 | 2.0 | 0.00 | 0.00 | 0.00 | 94 | 1014.2 |
| 20260503050018 | 62 | 0.0 | 1.0 | 0.00 | 0.00 | 0.00 | 94 | 1014.2 | |
| 20260503045106 | 62 | 0.0 | 1.0 | 0.00 | 0.00 | 0.00 | 94 | 1014.2 | |
| 20260503044050 | 62 | 0.0 | 1.0 | 0.00 | 0.00 | 0.00 | 94 | 1014.2 | |
| 20260503043038 | 62 | 0.0 | 1.0 | 0.00 | 0.00 | 0.00 | 94 | 1014.2 | |
| 20260503042149 | 62 | 0.0 | 1.0 | 0.00 | 0.00 | 0.00 | 94 | 1014.1 | |
| 20260503041018 | 62 | 0 | 0.0 | 2.0 | 0.00 | 0.00 | 0.00 | 94 | 1014.1 |